START_TIME,STEP,MOV.,M15,t_acc.,M20,t_acc.
1980-11-14 09:04:28.870 ,0,0,0.,24.0,0.,24.0
1980-11-14 09:04:32.470 ,0,0,,0,,0
1980-11-14 09:09:27.070 ,0,0,0.,24.0,0.,24.0
1980-11-14 09:09:44.470 ,2,1,0.,24.0,0.,24.0
1980-11-14 09:10:08.470 ,2,0,0.,24.0,0.,24.0
1980-11-14 09:10:32.470 ,3,1,0.,24.0,0.,24.0
1980-11-14 09:10:56.470 ,3,0,0.,24.0,0.,24.0
1980-11-14 09:11:20.470 ,4,1,0.,24.0,0.,24.0
1980-11-14 09:11:44.470 ,4,0,0.,24.0,0.,24.0
1980-11-14 09:12:08.470 ,5,1,0.,24.0,0.,24.0
1980-11-14 09:12:32.470 ,5,0,0.,24.0,0.,24.0
1980-11-14 09:12:56.470 ,6,1,0.,24.0,0.,24.0
1980-11-14 09:13:20.470 ,6,0,0.,24.0,0.,24.0
1980-11-14 09:13:44.470 ,7,1,0.,24.0,0.,24.0
1980-11-14 09:14:08.470 ,7,0,0.,24.0,0.,24.0
1980-11-14 09:14:32.470 ,7,1,0.,24.0,0.,24.0
1980-11-14 09:14:56.470 ,7,0,0.,24.0,0.,24.0
1980-11-14 09:15:20.470 ,6,1,0.,24.0,0.,24.0
1980-11-14 09:15:44.470 ,6,0,0.,24.0,0.,24.0
1980-11-14 09:16:08.470 ,5,1,0.,24.0,0.,24.0
1980-11-14 09:16:32.470 ,5,0,0.,24.0,0.,24.0
1980-11-14 09:16:56.470 ,4,1,0.,24.0,0.,24.0
1980-11-14 09:17:20.470 ,4,0,0.,24.0,0.,24.0
1980-11-14 09:17:44.470 ,3,1,0.,24.0,0.,24.0
1980-11-14 09:18:08.470 ,3,0,0.,24.0,0.,24.0
1980-11-14 09:18:32.470 ,2,1,0.,24.0,0.,24.0
1980-11-14 09:18:56.470 ,2,0,0.,24.0,0.,24.0
1980-11-14 09:19:20.470 ,1,1,0.,24.0,0.,24.0
1980-11-14 09:19:44.470 ,1,0,0.,24.0,0.,24.0
1980-11-14 09:20:08.470 ,0,1,0.,24.0,0.,24.0
1980-11-14 09:20:32.470 ,0,0,0.,24.0,0.,24.0
1980-11-14 09:20:56.470 ,0,1,0.,24.0,0.,24.0
1980-11-14 09:21:20.470 ,0,0,,0,,0
1980-11-14 09:21:39.070 ,0,0,0.,24.0,0.,24.0
1980-11-14 09:21:44.470 ,1,1,0.,24.0,0.,24.0
1980-11-14 09:22:08.470 ,1,0,0.,24.0,0.,24.0
1980-11-14 09:22:32.470 ,2,1,0.,24.0,0.,24.0
1980-11-14 09:22:56.470 ,2,0,0.,24.0,0.,24.0
1980-11-14 09:23:20.470 ,3,1,0.,24.0,0.,24.0
1980-11-14 09:23:44.470 ,3,0,0.,24.0,0.,24.0
1980-11-14 09:24:08.470 ,4,1,0.,24.0,0.,24.0
1980-11-14 09:24:32.470 ,4,0,0.,24.0,0.,24.0
1980-11-14 09:24:56.470 ,5,1,0.,24.0,0.,24.0
1980-11-14 09:25:20.470 ,5,0,0.,24.0,0.,24.0
1980-11-14 09:25:44.470 ,6,1,0.,24.0,0.,24.0
1980-11-14 09:26:08.470 ,6,0,0.,24.0,0.,24.0
1980-11-14 09:26:32.470 ,7,1,0.,24.0,0.,24.0
1980-11-14 09:26:56.470 ,7,0,0.,24.0,0.,24.0
1980-11-14 09:27:20.470 ,7,1,0.,24.0,0.,24.0
1980-11-14 09:27:44.470 ,7,0,0.,24.0,0.,24.0
1980-11-14 09:28:08.470 ,6,1,0.,24.0,0.,24.0
1980-11-14 09:28:32.470 ,6,0,0.,24.0,0.,24.0
1980-11-14 09:28:56.470 ,5,1,0.,24.0,0.,24.0
1980-11-14 09:29:20.470 ,5,0,0.,24.0,0.,24.0
1980-11-14 09:29:44.470 ,4,1,0.,24.0,0.,24.0
1980-11-14 09:30:08.470 ,4,0,0.,24.0,0.,24.0
1980-11-14 09:30:32.470 ,3,1,0.,24.0,0.,24.0
1980-11-14 09:30:56.470 ,3,0,0.,24.0,0.,24.0
1980-11-14 09:31:20.470 ,2,1,0.,24.0,0.,24.0
1980-11-14 09:31:44.470 ,2,0,0.,24.0,0.,24.0
1980-11-14 09:32:08.470 ,1,1,0.,24.0,0.,24.0
1980-11-14 09:32:32.470 ,1,0,0.,24.0,0.,24.0
1980-11-14 09:32:56.470 ,0,1,0.,24.0,0.,24.0
1980-11-14 09:33:20.470 ,0,0,0.,24.0,0.,24.0
1980-11-14 09:33:44.470 ,0,1,0.,24.0,0.,24.0
1980-11-14 09:34:08.470 ,0,0,0.,24.0,0.,24.0
1980-11-14 09:34:32.470 ,1,1,0.,24.0,0.,24.0
1980-11-14 09:34:56.470 ,1,0,0.,24.0,0.,24.0
1980-11-14 09:35:20.470 ,2,1,0.,24.0,0.,24.0
1980-11-14 09:35:44.470 ,2,0,0.,24.0,0.,24.0
1980-11-14 09:36:08.470 ,0,0,0.,24.0,0.,24.0
1980-11-14 09:36:32.470 ,0,0,0.,24.0,0.,24.0
1980-11-14 09:36:56.470 ,4,1,0.,24.0,0.,24.0
1980-11-14 09:37:20.470 ,4,0,0.,24.0,0.,24.0
1980-11-14 09:37:44.470 ,5,1,0.,24.0,0.,24.0
1980-11-14 09:38:08.470 ,5,0,0.,24.0,0.,24.0
1980-11-14 09:38:32.470 ,6,1,0.,24.0,0.,24.0
1980-11-14 09:38:56.470 ,6,0,0.,24.0,0.,24.0
1980-11-14 09:39:20.470 ,7,1,0.,24.0,0.,24.0
1980-11-14 09:39:44.470 ,7,0,0.,24.0,0.,24.0
1980-11-14 09:40:08.470 ,7,1,0.,24.0,0.,24.0
1980-11-14 09:40:32.470 ,7,0,0.,24.0,0.,24.0
1980-11-14 09:40:56.470 ,6,1,0.,24.0,0.,24.0
1980-11-14 09:41:20.470 ,6,0,0.,24.0,0.,24.0
1980-11-14 09:41:44.470 ,5,1,0.,24.0,0.,24.0
1980-11-14 09:42:08.470 ,5,0,0.,24.0,0.,24.0
1980-11-14 09:42:32.470 ,4,1,0.,24.0,0.,24.0
1980-11-14 09:42:56.470 ,4,0,0.,24.0,0.,24.0
1980-11-14 09:43:20.470 ,3,1,0.,24.0,0.,24.0
1980-11-14 09:43:44.470 ,3,0,0.,24.0,0.,24.0
1980-11-14 09:44:08.470 ,2,1,0.,24.0,0.,24.0
1980-11-14 09:44:32.470 ,2,0,0.,24.0,0.,24.0
1980-11-14 09:44:56.470 ,1,1,0.,24.0,0.,24.0
1980-11-14 09:45:20.470 ,1,0,0.,24.0,0.,24.0
1980-11-14 09:45:44.470 ,0,1,0.,24.0,0.,24.0
1980-11-14 09:46:08.470 ,0,0,0.,24.0,0.,24.0
1980-11-14 09:46:32.470 ,0,1,0.,24.0,0.,24.0
1980-11-14 09:46:56.470 ,0,0,0.,24.0,0.,24.0
1980-11-14 09:47:20.470 ,1,1,0.,24.0,0.,24.0
1980-11-14 09:47:44.470 ,1,0,0.,24.0,0.,24.0
1980-11-14 09:48:08.470 ,2,1,0.,24.0,0.,24.0
1980-11-14 09:48:32.470 ,2,0,0.,24.0,0.,24.0
1980-11-14 09:48:56.470 ,3,1,0.,24.0,0.,24.0
1980-11-14 09:49:20.470 ,3,0,0.,24.0,0.,24.0
1980-11-14 09:49:44.470 ,4,1,0.,24.0,0.,24.0
1980-11-14 09:50:08.470 ,4,0,0.,24.0,0.,24.0
1980-11-14 09:50:32.470 ,5,1,0.,24.0,0.,24.0
1980-11-14 09:50:56.470 ,5,0,0.,24.0,0.,24.0
1980-11-14 09:51:20.470 ,6,1,0.,24.0,0.,24.0
1980-11-14 09:51:44.470 ,6,0,0.,24.0,0.,24.0
1980-11-14 09:52:08.470 ,7,1,0.,24.0,0.,24.0
1980-11-14 09:52:32.470 ,0,0,0.,24.0,0.,24.0
1980-11-14 09:53:25.270 ,0,0,0.,24.0,0.,24.0
1980-11-14 09:53:44.470 ,6,1,0.,24.0,0.,24.0
1980-11-14 09:54:08.470 ,6,0,0.,24.0,0.,24.0
1980-11-14 09:54:32.470 ,5,1,0.,24.0,0.,24.0
1980-11-14 09:54:56.470 ,5,0,0.,24.0,0.,24.0
1980-11-14 09:55:20.470 ,4,1,0.,24.0,0.,24.0
1980-11-14 09:55:44.470 ,4,0,0.,24.0,0.,24.0
1980-11-14 09:56:08.470 ,3,1,0.,24.0,0.,24.0
1980-11-14 09:56:32.470 ,3,0,0.,24.0,0.,24.0
1980-11-14 09:56:56.470 ,2,1,0.,24.0,0.,24.0
1980-11-14 09:57:20.470 ,2,0,0.,24.0,0.,24.0
1980-11-14 09:57:44.470 ,1,1,0.,24.0,0.,24.0
1980-11-14 09:58:08.470 ,1,0,0.,24.0,0.,24.0
1980-11-14 09:58:32.470 ,0,1,0.,24.0,0.,24.0
1980-11-14 09:58:56.470 ,0,0,0.,24.0,0.,24.0
1980-11-14 09:59:20.470 ,0,1,0.,24.0,0.,24.0
1980-11-14 09:59:44.470 ,0,0,0.,24.0,0.,24.0
1980-11-14 10:00:08.470 ,1,1,0.,24.0,0.,24.0
1980-11-14 10:00:32.470 ,1,0,0.,24.0,0.,24.0
1980-11-14 10:00:56.470 ,2,1,1.,24.0,0.,24.0
1980-11-14 10:01:20.470 ,2,0,0.,24.0,0.,24.0
1980-11-14 10:01:44.470 ,3,1,0.,24.0,0.,24.0
1980-11-14 10:02:08.470 ,3,0,0.,24.0,0.,24.0
1980-11-14 10:02:32.470 ,4,1,0.,24.0,0.,24.0
1980-11-14 10:02:56.470 ,4,0,0.,24.0,0.,24.0
1980-11-14 10:03:20.470 ,5,1,0.,24.0,0.,24.0
1980-11-14 10:03:44.470 ,5,0,0.,24.0,0.,24.0
1980-11-14 10:04:08.470 ,6,1,0.,24.0,0.,24.0
1980-11-14 10:04:32.470 ,6,0,0.,24.0,0.,24.0
1980-11-14 10:04:56.470 ,7,1,0.,24.0,0.,24.0
1980-11-14 10:05:20.470 ,7,0,0.,24.0,0.,24.0
1980-11-14 10:05:44.470 ,7,1,0.,24.0,0.,24.0
1980-11-14 10:06:08.470 ,7,0,0.,24.0,0.,24.0
1980-11-14 10:06:32.470 ,6,1,0.,24.0,0.,24.0
1980-11-14 10:06:56.470 ,6,0,0.,24.0,0.,24.0
1980-11-14 10:07:20.470 ,5,1,0.,24.0,0.,24.0
1980-11-14 10:07:44.470 ,5,0,0.,24.0,0.,24.0
1980-11-14 10:08:08.470 ,4,1,0.,24.0,0.,24.0
1980-11-14 10:08:32.470 ,4,0,0.,24.0,0.,24.0
1980-11-14 10:08:56.470 ,3,1,0.,24.0,0.,24.0
1980-11-14 10:09:20.470 ,3,0,0.,24.0,0.,24.0
1980-11-14 10:09:44.470 ,2,1,0.,24.0,0.,24.0
1980-11-14 10:10:08.470 ,2,0,0.,24.0,0.,24.0
1980-11-14 10:10:32.470 ,1,1,0.,24.0,0.,24.0
1980-11-14 10:10:56.470 ,1,0,0.,24.0,0.,24.0
1980-11-14 10:11:20.470 ,0,1,0.,24.0,0.,24.0
1980-11-14 10:11:44.470 ,0,0,0.,24.0,0.,24.0
1980-11-14 10:12:08.470 ,0,1,0.,24.0,0.,24.0
1980-11-14 10:12:32.470 ,0,0,0.,24.0,0.,24.0
1980-11-14 10:12:56.470 ,1,1,0.,24.0,0.,24.0
1980-11-14 10:13:20.470 ,1,0,0.,24.0,0.,24.0
1980-11-14 10:13:44.470 ,2,1,0.,24.0,0.,24.0
1980-11-14 10:14:08.470 ,2,0,0.,24.0,0.,24.0
1980-11-14 10:14:32.470 ,3,1,0.,24.0,0.,24.0
1980-11-14 10:14:56.470 ,3,0,0.,24.0,0.,24.0
1980-11-14 10:15:20.470 ,4,1,0.,24.0,0.,24.0
1980-11-14 10:15:44.470 ,4,0,0.,24.0,0.,24.0
1980-11-14 10:16:08.470 ,5,1,0.,24.0,0.,24.0
1980-11-14 10:16:32.470 ,5,0,0.,24.0,0.,24.0
1980-11-14 10:16:56.470 ,0,0,,0,,0
1980-11-14 10:17:20.470 ,0,0,0.,24.0,0.,24.0
1980-11-14 10:17:44.470 ,7,1,0.,24.0,0.,24.0
1980-11-14 10:18:08.470 ,7,1,0.,24.0,0.,24.0
1980-11-14 10:18:32.470 ,7,1,0.,24.0,0.,24.0
1980-11-14 10:18:56.470 ,7,0,0.,24.0,0.,24.0
1980-11-14 10:19:20.470 ,6,1,0.,24.0,0.,24.0
1980-11-14 10:19:44.470 ,6,0,0.,24.0,0.,24.0
1980-11-14 10:20:08.470 ,5,1,0.,24.0,0.,24.0
1980-11-14 10:20:32.470 ,5,0,0.,24.0,0.,24.0
1980-11-14 10:20:56.470 ,4,1,0.,24.0,0.,24.0
1980-11-14 10:21:20.470 ,4,0,0.,24.0,0.,24.0
1980-11-14 10:21:44.470 ,3,1,0.,24.0,0.,24.0
1980-11-14 10:22:08.470 ,3,0,0.,24.0,0.,24.0
1980-11-14 10:22:32.470 ,2,1,0.,24.0,0.,24.0
1980-11-14 10:22:56.470 ,2,0,0.,24.0,0.,24.0
1980-11-14 10:23:20.470 ,1,1,0.,24.0,0.,24.0
1980-11-14 10:23:44.470 ,1,0,0.,24.0,0.,24.0
1980-11-14 10:24:08.470 ,0,1,0.,24.0,0.,24.0
1980-11-14 10:24:32.470 ,0,0,0.,24.0,0.,24.0
1980-11-14 10:24:56.470 ,0,1,0.,24.0,0.,24.0
1980-11-14 10:25:20.470 ,0,0,0.,24.0,0.,24.0
1980-11-14 10:25:44.470 ,1,1,0.,24.0,0.,24.0
1980-11-14 10:26:08.470 ,1,0,0.,24.0,0.,24.0
1980-11-14 10:26:32.470 ,2,1,0.,24.0,0.,24.0
1980-11-14 10:26:56.470 ,2,0,0.,24.0,0.,24.0
1980-11-14 10:27:20.470 ,3,1,0.,24.0,0.,24.0
1980-11-14 10:27:44.470 ,3,0,0.,24.0,0.,24.0
1980-11-14 10:28:08.470 ,4,1,0.,24.0,0.,24.0
1980-11-14 10:28:32.470 ,4,0,0.,24.0,0.,24.0
1980-11-14 10:28:56.470 ,5,1,0.,24.0,0.,24.0
1980-11-14 10:29:20.470 ,5,0,0.,24.0,0.,24.0
1980-11-14 10:29:44.470 ,6,1,0.,24.0,0.,24.0
1980-11-14 10:30:08.470 ,6,0,0.,24.0,0.,24.0
1980-11-14 10:30:32.470 ,7,1,0.,24.0,0.,24.0
1980-11-14 10:30:56.470 ,7,0,0.,24.0,0.,24.0
1980-11-14 10:31:20.470 ,7,1,0.,24.0,0.,24.0
1980-11-14 10:31:44.470 ,7,0,0.,24.0,0.,24.0
1980-11-14 10:32:08.470 ,6,1,0.,24.0,0.,24.0
1980-11-14 10:32:32.470 ,6,0,0.,24.0,0.,24.0
1980-11-14 10:32:56.470 ,5,1,0.,24.0,0.,24.0
1980-11-14 10:33:20.470 ,5,0,0.,24.0,0.,24.0
1980-11-14 10:33:44.470 ,4,1,0.,24.0,0.,24.0
1980-11-14 10:34:08.470 ,4,0,0.,24.0,0.,24.0
1980-11-14 10:34:32.470 ,3,1,0.,24.0,0.,24.0
1980-11-14 10:34:56.470 ,3,0,0.,24.0,0.,24.0
1980-11-14 10:35:20.470 ,2,1,0.,24.0,0.,24.0
1980-11-14 10:35:44.470 ,2,0,0.,24.0,0.,24.0
1980-11-14 10:36:08.470 ,1,1,0.,24.0,0.,24.0
1980-11-14 10:36:32.470 ,1,0,0.,24.0,0.,24.0
1980-11-14 10:36:56.470 ,0,1,0.,24.0,0.,24.0
1980-11-14 10:37:20.470 ,0,0,0.,24.0,0.,24.0
1980-11-14 10:37:44.470 ,0,0,,0,,0
1980-11-14 10:38:08.470 ,0,0,,0,,0
1980-11-14 10:37:53.470 ,0,1,0.,24.0,0.,24.0
1980-11-14 10:38:08.470 ,0,0,0.,24.0,0.,24.0
1980-11-14 10:38:32.470 ,1,1,0.,24.0,0.,24.0
1980-11-14 10:38:56.470 ,1,0,0.,24.0,0.,24.0
1980-11-14 10:39:20.470 ,2,1,0.,24.0,0.,24.0
1980-11-14 10:39:44.470 ,2,0,0.,24.0,0.,24.0
1980-11-14 10:40:08.470 ,3,1,0.,24.0,0.,24.0
1980-11-14 10:40:32.470 ,3,0,0.,24.0,0.,24.0
1980-11-14 10:40:56.470 ,4,1,0.,24.0,0.,24.0
1980-11-14 10:41:20.470 ,4,0,0.,24.0,0.,24.0
1980-11-14 10:41:44.470 ,5,1,0.,24.0,0.,24.0
1980-11-14 10:42:08.470 ,5,0,0.,24.0,0.,24.0
1980-11-14 10:42:32.470 ,6,1,0.,24.0,0.,24.0
1980-11-14 10:42:56.470 ,6,0,0.,24.0,0.,24.0
1980-11-14 10:44:08.470 ,0,0,0.,24.0,0.,24.0
1980-11-14 10:44:32.470 ,0,0,0.,24.0,0.,24.0
1980-11-14 10:44:56.470 ,6,1,0.,24.0,0.,24.0
1980-11-14 10:45:20.470 ,6,0,0.,24.0,0.,24.0
1980-11-14 10:45:44.470 ,5,1,0.,24.0,0.,24.0
1980-11-14 10:46:08.470 ,5,0,0.,24.0,0.,24.0
1980-11-14 10:46:32.470 ,4,1,0.,24.0,0.,24.0
1980-11-14 10:46:56.470 ,4,0,0.,24.0,0.,24.0
1980-11-14 10:47:20.470 ,3,1,0.,24.0,0.,24.0
1980-11-14 10:47:44.470 ,3,0,0.,24.0,0.,24.0
1980-11-14 10:48:08.470 ,2,1,0.,24.0,0.,24.0
1980-11-14 10:48:32.470 ,2,0,0.,24.0,0.,24.0
1980-11-14 10:48:56.470 ,1,1,0.,24.0,0.,24.0
1980-11-14 10:49:20.470 ,1,0,0.,24.0,0.,24.0
1980-11-14 10:49:44.470 ,0,1,0.,24.0,0.,24.0
1980-11-14 10:50:08.470 ,0,0,0.,24.0,0.,24.0
1980-11-14 10:50:32.470 ,0,1,0.,24.0,0.,24.0
1980-11-14 10:50:56.470 ,0,0,0.,24.0,0.,24.0
1980-11-14 10:51:20.470 ,1,1,0.,24.0,0.,24.0
1980-11-14 10:51:44.470 ,1,0,0.,24.0,0.,24.0
1980-11-14 10:52:08.470 ,2,1,0.,24.0,0.,24.0
1980-11-14 10:52:32.470 ,2,0,0.,24.0,0.,24.0
1980-11-14 10:52:56.470 ,3,1,0.,24.0,0.,24.0
1980-11-14 10:53:20.470 ,3,0,0.,24.0,0.,24.0
1980-11-14 10:53:44.470 ,4,1,0.,24.0,0.,24.0
1980-11-14 10:54:08.470 ,4,0,0.,24.0,0.,24.0
1980-11-14 10:54:32.470 ,5,1,0.,24.0,0.,24.0
1980-11-14 10:54:56.470 ,5,0,0.,24.0,0.,24.0
1980-11-14 10:55:20.470 ,6,1,0.,24.0,0.,24.0
1980-11-14 10:55:44.470 ,6,0,0.,24.0,0.,24.0
1980-11-14 10:56:08.470 ,7,1,0.,24.0,0.,24.0
1980-11-14 10:56:32.470 ,7,0,0.,24.0,0.,24.0
1980-11-14 10:56:56.470 ,7,1,0.,24.0,0.,24.0
1980-11-14 10:57:20.470 ,7,0,0.,24.0,0.,24.0
1980-11-14 10:57:44.470 ,6,1,0.,24.0,0.,24.0
1980-11-14 10:58:08.470 ,6,0,0.,24.0,0.,24.0
1980-11-14 10:58:32.470 ,5,1,0.,24.0,0.,24.0
1980-11-14 10:58:56.470 ,5,0,0.,24.0,0.,24.0
1980-11-14 10:59:20.470 ,4,1,0.,24.0,0.,24.0
1980-11-14 10:59:44.470 ,4,0,0.,24.0,0.,24.0
1980-11-14 11:00:08.470 ,3,1,0.,24.0,0.,24.0
1980-11-14 11:00:32.470 ,3,0,0.,24.0,0.,24.0
1980-11-14 11:00:56.470 ,2,1,0.,24.0,0.,24.0
1980-11-14 11:01:20.470 ,2,0,0.,24.0,0.,24.0
1980-11-14 11:01:44.470 ,1,1,0.,24.0,0.,24.0
1980-11-14 11:02:08.470 ,1,0,0.,24.0,0.,24.0
1980-11-14 11:02:32.470 ,0,1,0.,24.0,0.,24.0
1980-11-14 11:02:56.470 ,0,0,0.,24.0,0.,24.0
1980-11-14 11:03:20.470 ,0,1,0.,24.0,0.,24.0
1980-11-14 11:03:44.470 ,0,0,0.,24.0,0.,24.0
1980-11-14 11:04:08.470 ,1,1,0.,24.0,0.,24.0
1980-11-14 11:04:32.470 ,1,0,0.,24.0,0.,24.0
1980-11-14 11:04:56.470 ,2,1,0.,24.0,0.,24.0
1980-11-14 11:05:20.470 ,2,0,0.,24.0,0.,24.0
1980-11-14 11:05:44.470 ,3,1,0.,24.0,0.,24.0
1980-11-14 11:06:08.470 ,3,0,0.,24.0,0.,24.0
1980-11-14 11:06:32.470 ,4,1,0.,24.0,0.,24.0
1980-11-14 11:06:56.470 ,4,0,0.,24.0,0.,24.0
1980-11-14 11:07:20.470 ,5,1,0.,24.0,0.,24.0
1980-11-14 11:07:44.470 ,5,0,0.,24.0,0.,24.0
1980-11-14 11:08:08.470 ,6,1,0.,24.0,0.,24.0
1980-11-14 11:08:32.470 ,6,0,0.,24.0,0.,24.0
1980-11-14 11:08:56.470 ,7,1,0.,24.0,0.,24.0
1980-11-14 11:09:20.470 ,7,0,0.,24.0,0.,24.0
1980-11-14 11:09:44.470 ,7,1,0.,24.0,0.,24.0
1980-11-14 11:10:08.470 ,7,0,0.,24.0,0.,24.0
1980-11-14 11:10:32.470 ,6,1,0.,24.0,0.,24.0
1980-11-14 11:10:56.470 ,6,0,0.,24.0,0.,24.0
1980-11-14 11:11:20.470 ,5,1,0.,24.0,0.,24.0
1980-11-14 11:11:44.470 ,5,0,0.,24.0,0.,24.0
1980-11-14 11:12:08.470 ,4,1,0.,24.0,0.,24.0
1980-11-14 11:12:32.470 ,4,0,0.,24.0,0.,24.0
1980-11-14 11:12:56.470 ,3,1,0.,24.0,0.,24.0
1980-11-14 11:13:20.470 ,3,0,0.,24.0,0.,24.0
1980-11-14 11:13:44.470 ,2,1,0.,24.0,0.,24.0
1980-11-14 11:14:08.470 ,2,0,0.,24.0,0.,24.0
1980-11-14 11:14:32.470 ,1,1,0.,24.0,0.,24.0
1980-11-14 11:14:56.470 ,1,0,0.,24.0,0.,24.0
1980-11-14 11:15:20.470 ,0,1,0.,24.0,0.,24.0
1980-11-14 11:15:44.470 ,0,0,0.,24.0,0.,24.0
1980-11-14 11:16:08.470 ,0,1,0.,24.0,0.,24.0
1980-11-14 11:16:32.470 ,0,0,0.,24.0,0.,24.0
1980-11-14 11:16:56.470 ,1,1,0.,24.0,0.,24.0
1980-11-14 11:17:20.470 ,1,0,0.,24.0,0.,24.0
1980-11-14 11:17:44.470 ,2,1,0.,24.0,0.,24.0
1980-11-14 11:18:08.470 ,2,0,0.,24.0,0.,24.0
1980-11-14 11:18:32.470 ,3,1,0.,24.0,0.,24.0
1980-11-14 11:18:56.470 ,3,0,0.,24.0,0.,24.0
1980-11-14 11:19:20.470 ,4,1,0.,24.0,0.,24.0
1980-11-14 11:19:44.470 ,4,0,0.,24.0,0.,24.0
1980-11-14 11:20:08.470 ,5,1,0.,24.0,0.,24.0
1980-11-14 11:20:32.470 ,5,0,0.,24.0,0.,24.0
1980-11-14 11:20:56.470 ,6,1,0.,24.0,0.,24.0
1980-11-14 11:21:20.470 ,6,0,0.,24.0,0.,24.0
1980-11-14 11:21:44.470 ,7,1,0.,24.0,0.,24.0
1980-11-14 11:22:08.470 ,7,0,0.,24.0,0.,24.0
1980-11-14 11:22:32.470 ,7,1,0.,24.0,0.,24.0
1980-11-14 11:22:56.470 ,7,0,0.,24.0,0.,24.0
1980-11-14 11:23:20.470 ,6,1,0.,24.0,0.,24.0
1980-11-14 11:23:44.470 ,6,0,0.,24.0,0.,24.0
1980-11-14 11:24:08.470 ,5,1,0.,24.0,0.,24.0
1980-11-14 11:24:32.470 ,5,0,0.,24.0,0.,24.0
1980-11-14 11:24:56.470 ,4,1,0.,24.0,0.,24.0
1980-11-14 11:25:20.470 ,4,0,0.,24.0,0.,24.0
1980-11-14 11:25:44.470 ,3,1,0.,24.0,0.,24.0
1980-11-14 11:26:08.470 ,3,0,0.,24.0,0.,24.0
1980-11-14 11:26:32.470 ,2,1,0.,24.0,0.,24.0
1980-11-14 11:26:56.470 ,2,0,0.,24.0,0.,24.0
1980-11-14 11:27:20.470 ,1,1,0.,24.0,0.,24.0
1980-11-14 11:27:44.470 ,1,0,0.,24.0,0.,24.0
1980-11-14 11:28:08.470 ,0,1,0.,24.0,0.,24.0
1980-11-14 11:28:32.470 ,0,0,0.,24.0,0.,24.0
1980-11-14 11:28:56.470 ,0,1,0.,24.0,0.,24.0
1980-11-14 11:29:20.470 ,0,0,0.,24.0,0.,24.0
1980-11-14 11:29:44.470 ,1,1,0.,24.0,0.,24.0
1980-11-14 11:30:08.470 ,1,0,0.,24.0,0.,24.0
1980-11-14 11:30:32.470 ,2,1,0.,24.0,0.,24.0
1980-11-14 11:30:56.470 ,2,0,0.,24.0,0.,24.0
1980-11-14 11:31:20.470 ,3,1,0.,24.0,0.,24.0
1980-11-14 11:31:44.470 ,3,0,0.,24.0,0.,24.0
1980-11-14 11:32:08.470 ,4,1,0.,24.0,0.,24.0
1980-11-14 11:32:32.470 ,4,0,0.,24.0,0.,24.0
1980-11-14 11:32:56.470 ,5,1,0.,24.0,0.,24.0
1980-11-14 11:33:20.470 ,5,0,0.,24.0,0.,24.0
1980-11-14 11:33:44.470 ,6,1,0.,24.0,0.,24.0
1980-11-14 11:34:08.470 ,6,0,0.,24.0,0.,24.0
1980-11-14 11:34:32.470 ,7,1,0.,24.0,0.,24.0
1980-11-14 11:34:56.470 ,7,0,0.,24.0,0.,24.0
1980-11-14 11:35:20.470 ,7,1,0.,24.0,0.,24.0
1980-11-14 11:35:44.470 ,7,0,0.,24.0,0.,24.0
1980-11-14 11:36:08.470 ,6,1,0.,24.0,0.,24.0
1980-11-14 11:36:32.470 ,6,0,0.,24.0,0.,24.0
1980-11-14 11:36:56.470 ,5,1,0.,24.0,0.,24.0
1980-11-14 11:37:20.470 ,5,0,0.,24.0,0.,24.0
1980-11-14 11:37:44.470 ,4,1,0.,24.0,0.,24.0
1980-11-14 11:38:08.470 ,4,0,0.,24.0,0.,24.0
1980-11-14 11:38:32.470 ,3,1,0.,24.0,0.,24.0
1980-11-14 11:38:56.470 ,3,0,0.,24.0,0.,24.0
1980-11-14 11:39:20.470 ,2,1,0.,24.0,0.,24.0
1980-11-14 11:39:44.470 ,2,0,0.,24.0,0.,24.0
1980-11-14 11:40:08.470 ,1,1,0.,24.0,0.,24.0
1980-11-14 11:40:32.470 ,1,0,0.,24.0,0.,24.0
1980-11-14 11:40:56.470 ,0,1,0.,24.0,0.,24.0
1980-11-14 11:41:20.470 ,0,0,0.,24.0,0.,24.0
1980-11-14 11:41:44.470 ,0,1,0.,24.0,0.,24.0
1980-11-14 11:42:08.470 ,0,0,0.,24.0,0.,24.0
1980-11-14 11:42:32.470 ,1,1,0.,24.0,0.,24.0
1980-11-14 11:42:56.470 ,1,0,0.,24.0,0.,24.0
1980-11-14 11:43:20.470 ,2,1,0.,24.0,0.,24.0
1980-11-14 11:43:44.470 ,2,0,0.,24.0,0.,24.0
1980-11-14 11:44:08.470 ,3,1,0.,24.0,0.,24.0
1980-11-14 11:44:32.470 ,3,0,0.,24.0,0.,24.0
1980-11-14 11:44:56.470 ,4,1,0.,24.0,0.,24.0
1980-11-14 11:45:20.470 ,4,0,0.,24.0,0.,24.0
1980-11-14 11:45:44.470 ,5,1,0.,24.0,0.,24.0
1980-11-14 11:46:08.470 ,5,0,0.,24.0,0.,24.0
1980-11-14 11:46:32.470 ,6,1,0.,24.0,0.,24.0
1980-11-14 11:46:56.470 ,6,0,0.,24.0,0.,24.0
1980-11-14 11:47:20.470 ,7,1,0.,24.0,0.,24.0
1980-11-14 11:47:44.470 ,7,0,0.,24.0,0.,24.0
1980-11-14 11:48:08.470 ,7,1,0.,24.0,0.,24.0
1980-11-14 11:48:32.470 ,7,0,0.,24.0,0.,24.0
1980-11-14 11:48:56.470 ,6,1,0.,24.0,0.,24.0
1980-11-14 11:49:20.470 ,6,0,0.,24.0,0.,24.0
1980-11-14 11:49:44.470 ,5,1,0.,24.0,0.,24.0
1980-11-14 11:50:08.470 ,5,0,0.,24.0,0.,24.0
1980-11-14 11:50:32.470 ,4,1,0.,24.0,0.,24.0
1980-11-14 11:50:56.470 ,4,0,0.,24.0,0.,24.0
1980-11-14 11:51:20.470 ,3,1,0.,24.0,0.,24.0
1980-11-14 11:51:44.470 ,3,0,0.,24.0,0.,24.0
1980-11-14 11:52:08.470 ,2,1,0.,24.0,0.,24.0
1980-11-14 11:52:32.470 ,2,0,0.,24.0,0.,24.0
1980-11-14 11:52:56.470 ,1,1,0.,24.0,0.,24.0
1980-11-14 11:53:20.470 ,1,0,0.,24.0,0.,24.0
1980-11-14 11:53:44.470 ,0,1,0.,24.0,0.,24.0
1980-11-14 11:54:08.470 ,0,0,0.,24.0,0.,24.0
1980-11-14 11:54:32.470 ,0,1,0.,24.0,0.,24.0
1980-11-14 11:54:56.470 ,0,0,0.,24.0,0.,24.0
1980-11-14 11:55:20.470 ,1,1,0.,24.0,0.,24.0
1980-11-14 11:55:44.470 ,1,0,0.,24.0,0.,24.0
1980-11-14 11:56:08.470 ,2,1,0.,24.0,0.,24.0
1980-11-14 11:56:32.470 ,2,0,0.,24.0,0.,24.0
1980-11-14 11:56:56.470 ,3,1,0.,24.0,0.,24.0
1980-11-14 11:57:20.470 ,3,0,0.,24.0,0.,24.0
1980-11-14 11:57:44.470 ,4,1,0.,24.0,0.,24.0
1980-11-14 11:58:08.470 ,4,0,0.,24.0,0.,24.0
1980-11-14 11:58:32.470 ,5,1,0.,24.0,0.,24.0
1980-11-14 11:58:56.470 ,5,0,0.,24.0,0.,24.0
1980-11-14 11:59:20.470 ,6,1,0.,24.0,0.,24.0
1980-11-14 11:59:44.470 ,6,0,0.,24.0,0.,24.0
1980-11-14 12:00:08.470 ,7,1,0.,24.0,0.,24.0
